Regional Weather Roundup
Issued by NWS Little Rock, AR

Home | Current Version | Previous Version | Graphics & Text | Print | Product List | Glossary On
Versions: 1 2 3 4 5 6 7 8 9 10 11 12 13 14 15 16 17 18 19 20 21 22 23 24 25 26 27 28 29 30 31 32 33 34 35 36 37 38 39 40 41 42 43 44 45 46 47 48 49 50
000
ASUS44 KLZK 270505
RWRLZK

WEATHER ROUNDUP FOR ARKANSAS
NATIONAL WEATHER SERVICE LITTLE ROCK AR
1100 PM CST MON JAN 26 2015

NOTE: "FAIR" INDICATES FEW OR NO CLOUDS BELOW 12,000 FEET WITH NO
SIGNIFICANT WEATHER AND/OR OBSTRUCTIONS TO VISIBILITY.

ARZ001-003-010-029-270600-
NORTHWEST ARKANSAS

CITY           SKY/WX    TMP DP  RH WIND       PRES   REMARKS
FAYETTEVILLE   CLEAR     34  31  88 S6        30.03R WCI  29
FORT SMITH     CLEAR     46  35  65 SW3       30.02R
HARRISON       CLEAR     50  35  56 W8        29.99F
BENTONVILLE    CLEAR     39  30  70 CALM      30.03S
ROGERS         CLEAR     47  34  60 W5        30.03S
SILOAM SPGS    CLEAR     46  30  53 CALM      30.04R
HIGHFILL       CLEAR     49  34  56 W5        30.02S
$$

ARZ004-005-016-270600-
NORTH CENTRAL ARKANSAS

CITY           SKY/WX    TMP DP  RH WIND       PRES   REMARKS
BATESVILLE     CLEAR     50  34  53 W5        29.96F
FLIPPIN        CLEAR     46  30  53 CALM      29.97S
MTN HOME       CLEAR     48  35  60 W3        29.97S
$$

ARZ040-041-270600-
WEST CENTRAL ARKANSAS

CITY           SKY/WX    TMP DP  RH WIND       PRES   REMARKS
MENA           CLEAR     46  36  66 CALM      30.04S
MOUNT IDA      CLEAR     53  35  50 VRB3      30.00R
$$

ARZ009-017-025-026-028-270600-
NORTHEAST ARKANSAS

CITY           SKY/WX    TMP DP  RH WIND       PRES   REMARKS
JONESBORO      CLEAR     44  33  65 W7        29.95R
NEWPORT        CLEAR     44  33  65 W6        29.97S
WALNUT RIDGE   CLEAR     43  30  61 W7        29.94S
BLYTHEVILLE    CLEAR     39  34  82 SW6       29.94R
$$

ARZ022-023-033-042-044-270600-
CENTRAL ARKANSAS

CITY           SKY/WX    TMP DP  RH WIND       PRES   REMARKS
LITTLE ROCK    CLEAR     47  34  60 W8        30.01S
N LITTLE ROCK  CLEAR     53  38  56 W6        30.01S
JACKSONVILLE   CLEAR     47  35  61 W8        29.99S
SEARCY         CLEAR     43  34  70 CALM      29.99S
HOT SPRINGS    CLEAR     48  36  63 NW5       30.02S
RUSSELLVILLE   CLEAR     38  34  85 CALM      30.00S
CLINTON        FAIR      32  32 100 CALM      30.01S
$$

ARZ036-270600-
EAST ARKANSAS

CITY           SKY/WX    TMP DP  RH WIND       PRES   REMARKS
WEST MEMPHIS   CLEAR     41  35  79 CALM      29.95S
$$

ARZ050-053-066-070-073-270600-
SOUTHWEST ARKANSAS

CITY           SKY/WX    TMP DP  RH WIND       PRES   REMARKS
ARKADELPHIA    FAIR      41  38  89 CALM      30.04S
CAMDEN         CLEAR     39  36  87 CALM      30.04F
TEXARKANA      CLEAR     47  36  65 SW7       30.05S
EL DORADO      CLEAR     42  36  79 CALM      30.05S
DE QUEEN       CLEAR     39  36  89 CALM      30.03F
$$

ARZ056-057-069-270600-
SOUTHEAST ARKANSAS

CITY           SKY/WX    TMP DP  RH WIND       PRES   REMARKS
PINE BLUFF     CLEAR     46  34  62 SW8       30.02R
STUTTGART      CLEAR     45  36  70 W10       30.00S
MONTICELLO     CLEAR     49  34  56 W8        30.02R

$$





USA.gov is the U.S. government's official web portal to all federal, state and local government web resources and services.